Wyoming Park, Ohio, United States
Lat: 39.24N, Lon: 84.46W
Wx Zone: OHZ077
Local Info
Past Weather Observations for Today

NOTE: This archive is for the closest National Weather Service station to Wyoming Park. Information may differ from the station used for current weather conditions.

Click here for Long-term Archive

Time Weather Temperature Dewpoint Humidity Pressure Winds Precip Visibility
17:53
Clear
88°F / 31°C 70°F / 21°C 55% 30.01 in
(1016 mb)
Variable 5.8 mph
(Variable 9 kph)
- 10SM
16:53
Clear
90°F / 32°C 68°F / 20°C 49% 30.04 in
(1017 mb)
Variable 3.5 mph
(Variable 6 kph)
- 10SM
15:53
Partly Cloudy
90°F / 32°C 66°F / 19°C 46% 30.04 in
(1017 mb)
WNW 8.1 mph
(WNW 13 kph)
- 10SM
14:53
Clear
90°F / 32°C 70°F / 21°C 52% 30.06 in
(1018 mb)
WNW 8.1 mph
(WNW 13 kph)
- 10SM
13:53
Partly Cloudy
90°F / 32°C 70°F / 21°C 52% 30.06 in
(1018 mb)
Calm - 10SM
12:53
Partly Cloudy
88°F / 31°C 70°F / 21°C 55% 30.09 in
(1019 mb)
WNW 4.6 mph
(WNW 7 kph)
-
11:53
Partly Cloudy
88°F / 31°C 72°F / 22°C 59% 30.12 in
(1020 mb)
WNW 6.9 mph
(WNW 11 kph)
- 10SM
10:53
Clear
84°F / 29°C 70°F / 21°C 62% 30.15 in
(1021 mb)
SSW 8.1 mph
(SSW 13 kph)
- 9SM
09:53
Clear
82°F / 28°C 70°F / 21°C 66% 30.15 in
(1021 mb)
Variable 3.5 mph
(Variable 6 kph)
- 8SM
08:53
Partly Cloudy
Hazy
75°F / 24°C 70°F / 21°C 83% 30.15 in
(1021 mb)
SW 3.5 mph
(SW 6 kph)
- 5SM
07:53
Clear
Fog And Mist
72°F / 22°C 70°F / 21°C 94% 30.15 in
(1021 mb)
Calm - 3SM
07:36
Clear
Fog And Mist
72°F / 22°C 68°F / 20°C 88% 30.15 in
(1021 mb)
Calm - 3SM
07:03
Clear
Fog And Mist
66°F / 19°C 66°F / 19°C 100% 30.15 in
(1021 mb)
Calm - 2SM
06:53
Partly Cloudy
Fog And Mist
66°F / 19°C 64°F / 18°C 94% 30.15 in
(1021 mb)
Calm - 1 3/4SM
06:40
Obscured
Fog And Mist
64°F / 18°C 64°F / 18°C 100% 30.15 in
(1021 mb)
Calm - 1SM
06:22
Obscured
Fog
64°F / 18°C 63°F / 17°C 94% 30.12 in
(1020 mb)
Calm - 1/4SM
06:13
Clear
Fog
64°F / 18°C 64°F / 18°C 100% 30.12 in
(1020 mb)
Calm - 1/2SM
06:06
Partly Cloudy
Fog And Mist
64°F / 18°C 64°F / 18°C 100% 30.12 in
(1020 mb)
Calm - 1 3/4SM
05:55
Clear
Fog And Mist
64°F / 18°C 63°F / 17°C 94% 30.12 in
(1020 mb)
Calm - 1 1/2SM
05:53
Clear
Fog And Mist
64°F / 18°C 64°F / 18°C 100% 30.12 in
(1020 mb)
Calm - 2SM
05:46
Clear
Fog And Mist
64°F / 18°C 63°F / 17°C 94% 30.12 in
(1020 mb)
Calm - 2 1/2SM
05:36
Clear
Fog And Mist
64°F / 18°C 64°F / 18°C 100% 30.12 in
(1020 mb)
Calm - 1 1/2SM
05:32
Clear
Fog And Mist
64°F / 18°C 64°F / 18°C 100% 30.12 in
(1020 mb)
Calm - 2SM
05:25
Partly Cloudy
Fog And Mist
64°F / 18°C 64°F / 18°C 100% 30.12 in
(1020 mb)
Calm - 1 3/4SM
05:12
Mostly Cloudy
Fog And Mist
64°F / 18°C 64°F / 18°C 100% 30.12 in
(1020 mb)
Calm - 1 1/4SM
05:05
Mostly Cloudy
Fog And Mist
66°F / 19°C 64°F / 18°C 94% 30.12 in
(1020 mb)
Calm - 2 1/2SM
04:53
Mostly Cloudy
Fog And Mist
66°F / 19°C 64°F / 18°C 94% 30.12 in
(1020 mb)
Calm - 3SM
04:49
Overcast
Fog And Mist
64°F / 18°C 64°F / 18°C 100% 30.12 in
(1020 mb)
Calm - 3SM
04:40
Mostly Cloudy
Fog And Mist
64°F / 18°C 64°F / 18°C 100% 30.12 in
(1020 mb)
Calm - 2SM
04:37
Mostly Cloudy
Fog And Mist
66°F / 19°C 64°F / 18°C 94% 30.12 in
(1020 mb)
Calm - 1 1/2SM
04:18
Obscured
Fog And Mist
66°F / 19°C 64°F / 18°C 94% 30.12 in
(1020 mb)
Calm - 3/4SM
04:12
Partly Cloudy
Fog And Mist
66°F / 19°C 64°F / 18°C 94% 30.12 in
(1020 mb)
Calm - 1 1/4SM
04:01
Obscured
Fog And Mist
66°F / 19°C 64°F / 18°C 94% 30.12 in
(1020 mb)
Calm - 3/4SM
03:57
Partly Cloudy
Fog And Mist
66°F / 19°C 64°F / 18°C 94% 30.12 in
(1020 mb)
Calm - 1 3/4SM
03:53
Clear
Fog And Mist
66°F / 19°C 64°F / 18°C 94% 30.12 in
(1020 mb)
Calm - 1SM
03:47
Clear
Fog And Mist
64°F / 18°C 64°F / 18°C 100% 30.12 in
(1020 mb)
Calm - 1SM
03:19
Clear
Fog And Mist
66°F / 19°C 64°F / 18°C 94% 30.12 in
(1020 mb)
Calm - 2 1/2SM
02:53
Clear
Fog And Mist
66°F / 19°C 64°F / 18°C 94% 30.12 in
(1020 mb)
Calm - 4SM
02:42
Clear
Fog And Mist
66°F / 19°C 66°F / 19°C 100% 30.12 in
(1020 mb)
Calm - 2SM
02:34
Clear
Fog And Mist
66°F / 19°C 64°F / 18°C 94% 30.12 in
(1020 mb)
Calm - 1 3/4SM
02:25
Clear
Fog And Mist
66°F / 19°C 64°F / 18°C 94% 30.12 in
(1020 mb)
Calm - 2SM
01:53
Clear
Fog And Mist
66°F / 19°C 66°F / 19°C 100% 30.12 in
(1020 mb)
Calm - 4SM
00:53
Clear
Fog And Mist
68°F / 20°C 66°F / 19°C 94% 30.12 in
(1020 mb)
Calm - 3SM
Time Weather Temperature Dewpoint Humidity Pressure Winds Precip Visibility


Weather for websites

WeatherForYou.com, LLC is not responsible for any damages or problems caused by this service. Current weather conditions are obtained from the closest station including government and personal stations which may have varying degrees of accuracy. Weather forecasts are derived from the NOAA NDFD. Like all things, this site belongs to Jesus Christ... He just trusts us to maintain it. If you have any questions or comments email webmaster@weatherforyou.com

Copyright © 2015, WeatherForYou.com LLC. All rights reserved.